TimeCST,TemperatureF,Dew PointF,Humidity,Sea Level PressureIn,VisibilityMPH,Wind Direction,Wind SpeedMPH,Gust SpeedMPH,PrecipitationIn,Events,Conditions,WindDirDegrees,DateUTC
12:54 AM,30.0,21.9,72,30.37,10.0,North,11.5,20.7,N/A,,Overcast,10,2014-02-06 06:54:00
1:54 AM,30.0,21.9,72,30.38,10.0,NNE,12.7,-,N/A,,Overcast,20,2014-02-06 07:54:00
2:54 AM,30.0,21.0,69,30.37,10.0,NNE,10.4,-,N/A,,Overcast,20,2014-02-06 08:54:00
3:54 AM,30.0,21.0,69,30.38,10.0,North,11.5,-,N/A,,Overcast,10,2014-02-06 09:54:00
4:54 AM,30.0,21.0,69,30.40,10.0,North,11.5,-,N/A,,Overcast,360,2014-02-06 10:54:00
5:54 AM,30.0,21.0,69,30.41,10.0,North,8.1,-,N/A,,Overcast,360,2014-02-06 11:54:00
6:54 AM,30.0,21.9,72,30.42,10.0,North,10.4,-,N/A,,Overcast,360,2014-02-06 12:54:00
7:54 AM,30.0,21.0,69,30.43,10.0,North,13.8,18.4,N/A,,Overcast,10,2014-02-06 13:54:00
8:54 AM,30.9,21.0,67,30.45,10.0,North,12.7,19.6,N/A,,Overcast,10,2014-02-06 14:54:00
9:54 AM,30.9,21.9,69,30.41,10.0,NNE,10.4,20.7,N/A,,Overcast,20,2014-02-06 15:54:00
10:54 AM,32.0,21.9,66,30.51,10.0,NW,9.2,-,N/A,,Overcast,310,2014-02-06 16:54:00
11:54 AM,32.0,21.9,66,30.46,10.0,North,10.4,-,N/A,,Overcast,360,2014-02-06 17:54:00
12:54 PM,32.0,23.0,69,30.42,10.0,North,10.4,-,N/A,,Overcast,10,2014-02-06 18:54:00
1:54 PM,34.0,24.1,67,30.39,10.0,North,9.2,-,0.00,Snow,Light Snow,10,2014-02-06 19:54:00
2:22 PM,33.8,24.8,70,30.35,9.0,NNE,11.5,-,0.00,,Mostly Cloudy,20,2014-02-06 20:22:00
2:54 PM,35.1,24.1,64,30.36,10.0,North,12.7,-,0.00,,Mostly Cloudy,10,2014-02-06 20:54:00
3:54 PM,37.0,24.1,59,30.38,10.0,North,12.7,-,N/A,,Mostly Cloudy,350,2014-02-06 21:54:00
4:54 PM,35.1,24.1,64,30.38,10.0,North,10.4,-,N/A,,Mostly Cloudy,10,2014-02-06 22:54:00
5:54 PM,32.0,23.0,69,30.38,10.0,NNW,5.8,-,N/A,,Scattered Clouds,330,2014-02-06 23:54:00
6:54 PM,30.9,24.1,76,30.39,10.0,North,6.9,-,N/A,,Mostly Cloudy,350,2014-02-07 00:54:00
7:54 PM,28.0,23.0,81,30.38,10.0,North,5.8,-,N/A,,Mostly Cloudy,360,2014-02-07 01:54:00
8:54 PM,28.0,24.1,85,30.38,10.0,NNW,6.9,-,N/A,,Mostly Cloudy,340,2014-02-07 02:54:00
9:54 PM,28.0,23.0,81,30.40,10.0,North,6.9,-,N/A,,Mostly Cloudy,360,2014-02-07 03:54:00
10:54 PM,27.0,23.0,85,30.40,10.0,North,6.9,-,N/A,,Mostly Cloudy,350,2014-02-07 04:54:00
11:54 PM,26.1,23.0,88,30.38,10.0,NNW,5.8,-,N/A,,Clear,330,2014-02-07 05:54:00